Location: Unnamed
(51.5169°N, 0.1311°W)
Time: 21:35:11
(UTC+01:00)

Tiros 1 - Pass Details

Date: 10 August 2024
Orbit: 623 x 655 km, 48.4° (Epoch: 16 September)

Event Time Altitude Azimuth Distance (km) Brightness Sun altitude
Rises 07:49:09 0° 244° (WSW) 2,974 10.0 18.7°
Reaches altitude 10° 07:51:33 10° 239° (WSW) 2,064 9.3 19.1°
Maximum altitude 07:56:08 49° 165° (SSE) 847 8.2 19.8°
Drops below altitude 10° 08:00:43 10° 91° (E) 2,062 12.1 20.5°
Sets 08:03:07 0° 86° (E) 2,971 12.1 20.9°
